Weather History for Greenville, MS

Change the Weather History Date:

Saturday, December 24, 2011

  Actual Average Record
Temperature  
Mean Temperature 42 °F 44 °F  
Max Temperature 45 °F 53 °F 78 °F (1955)
Min Temperature 39 °F 35 °F 1 °F (1989)
Degree Days  
Heating Degree Days 23 21  
Month to date heating degree days 462 468  
Since 1 July heating degree days 904 930  
Cooling Degree Days 0 0  
Month to date cooling degree days 0 0  
Year to date cooling degree days 2469 2186  
Moisture  
Dew Point 37 °F    
Average Humidity 83    
Maximum Humidity 96    
Minimum Humidity 70    
Precipitation  
Precipitation 0.10 in 0.18 in 2.84 in (1973)
Month to date precipitation 5.70 4.57  
Year to date precipitation 32.32 51.59  
Sea Level Pressure  
Sea Level Pressure 30.44 in    
Wind  
Wind Speed 8 mph (NNE)    
Max Wind Speed 14 mph    
Max Gust Speed 17 mph    
Visibility 10 miles    
Events Rain    
T = Trace of Precipitation, MM = Missing Value Source: NWS Daily Summary

Daily Weather History Graph

Daily Weather History Graph

Search for Another Location

Airport:

Trip Planner

Search our weather history database for the weather conditions in past years. The results will help you decide how hot, cold, wet, or windy it might be!

Date:

Astronomy

Dec. 24, 2011 Rise Set
Actual Time 7:05 AM CST 5:01 PM CST
Civil Twilight 6:37 AM CST 5:29 PM CST
Nautical Twilight 6:06 AM CST 6:00 PM CST
Astronomical Twilight 5:36 AM CST 6:30 PM CST
Moon 6:53 AM CST (12/24) 5:14 PM CST (12/24)
Length of Visible Light 10h 51m
Length of Day
9h 56m
New Moon, 0% of the Moon is Illuminated
Dec 24
New Moon
Dec 24
New
Jan 1
First Quarter
Jan 9
Full
Jan 16
Last Quarter

Hourly Weather History & Observations

Time (CST) Temp. Windchill Dew Point Humidity Pressure Visibility Wind Dir Wind Speed Gust Speed Precip Events Conditions
12:53 AM 39.9 °F 33.9 °F 35.1 °F 83% 30.44 in 10.0 mi NNE 9.2 mph - N/A   Overcast
1:53 AM 41.0 °F 35.2 °F 36.0 °F 82% 30.45 in 9.0 mi NNE 9.2 mph - N/A   Overcast
2:53 AM 39.9 °F 34.5 °F 36.0 °F 86% 30.45 in 9.0 mi NE 8.1 mph - N/A   Overcast
3:53 AM 39.9 °F 35.1 °F 36.0 °F 86% 30.45 in 9.0 mi NNE 6.9 mph - N/A   Overcast
4:53 AM 39.9 °F 33.4 °F 35.1 °F 83% 30.45 in 10.0 mi North 10.4 mph - N/A   Overcast
5:53 AM 39.9 °F 34.5 °F 35.1 °F 83% 30.46 in 10.0 mi NE 8.1 mph - N/A   Overcast
6:53 AM 39.9 °F 33.9 °F 35.1 °F 83% 30.47 in 10.0 mi ENE 9.2 mph - N/A   Overcast
7:53 AM 39.0 °F 32.8 °F 35.1 °F 86% 30.48 in 9.0 mi NE 9.2 mph - N/A   Overcast
8:53 AM 39.9 °F 34.5 °F 35.1 °F 83% 30.49 in 9.0 mi NE 8.1 mph - N/A   Overcast
9:53 AM 41.0 °F 34.3 °F 35.1 °F 79% 30.50 in 10.0 mi NE 11.5 mph - N/A   Overcast
10:53 AM 41.0 °F 35.2 °F 36.0 °F 82% 30.49 in 9.0 mi NE 9.2 mph - N/A   Overcast
11:51 AM 42.8 °F 37.5 °F 35.6 °F 76% 30.42 in 10.0 mi ENE 9.2 mph - N/A   Scattered Clouds
11:53 AM 42.1 °F 36.6 °F 36.0 °F 79% 30.45 in 10.0 mi NE 9.2 mph - N/A   Scattered Clouds
12:12 PM 42.8 °F 38.6 °F 37.4 °F 81% 30.41 in 10.0 mi NE 6.9 mph - N/A   Mostly Cloudy
12:53 PM 44.1 °F 39.0 °F 36.0 °F 73% 30.43 in 10.0 mi NNE 9.2 mph - N/A   Overcast
1:15 PM 44.6 °F 39.7 °F 37.4 °F 76% 30.40 in 10.0 mi NNE 9.2 mph - N/A   Scattered Clouds
1:43 PM 44.6 °F 40.2 °F 37.4 °F 76% 30.40 in 10.0 mi North 8.1 mph - N/A   Mostly Cloudy
1:53 PM 44.6 °F 39.2 °F 37.4 °F 76% 30.40 in 10.0 mi North 10.4 mph - N/A   Mostly Cloudy
2:07 PM 44.6 °F 41.4 °F 37.4 °F 76% 30.40 in 10.0 mi North 5.8 mph - N/A   Scattered Clouds
2:53 PM 44.1 °F 40.1 °F 37.0 °F 76% 30.41 in 10.0 mi North 6.9 mph - N/A   Scattered Clouds
3:53 PM 44.1 °F 38.6 °F 37.0 °F 76% 30.40 in 10.0 mi NE 10.4 mph - N/A   Scattered Clouds
4:53 PM 44.1 °F 40.1 °F 37.9 °F 79% 30.42 in 10.0 mi NE 6.9 mph - N/A   Scattered Clouds
6:53 PM 44.1 °F 42.5 °F 39.9 °F 85% 30.44 in 10.0 mi North 3.5 mph - 0.01 in   Overcast
7:53 PM 44.6 °F - 41.0 °F 87% 30.42 in 10.0 mi Calm Calm - N/A Rain Light Rain
8:53 PM 44.1 °F - 41.0 °F 89% 30.46 in 9.0 mi Calm Calm - 0.01 in Rain Light Rain
9:53 PM 43.0 °F 39.5 °F 41.0 °F 93% 30.42 in 8.0 mi NNE 5.8 mph - 0.01 in Rain Light Rain
10:53 PM 43.0 °F 38.8 °F 39.9 °F 89% 30.43 in 7.0 mi NNE 6.9 mph - 0.03 in Rain Light Rain
11:53 PM 43.0 °F 39.5 °F 41.0 °F 93% 30.42 in 8.0 mi NNE 5.8 mph - 0.04 in Rain Light Rain